Location: Morlupo
(42.1333°N, 12.5000°E)
Time: 04:25:14
(UTC+00:00)

FENGYUN 1C DEB - Visible Passes

Search period start: 23 March 2023 00:00
Search period end: 02 April 2023 00:00
Orbit: 821 x 875 km, 99.1° (Epoch: 21 March)

Date Brightness Start Highest point End Pass type
(mag) Time Alt. Az. Time Alt. Az. Time Alt. Az.
23 Mar ? 18:42:02 10° SW 18:46:19 22° W 18:50:38 10° NW visible
24 Mar ? 18:28:43 10° SSW 18:33:31 28° W 18:38:19 10° NW visible
25 Mar ? 18:15:35 10° SSW 18:20:44 36° W 18:25:54 10° NNW visible
26 Mar ? 18:02:34 10° S 18:07:58 47° W 18:13:23 10° NNW visible
27 Mar ? 17:49:40 10° S 17:55:13 61° WSW 18:00:47 10° NNW visible
29 Mar ? 19:08:20 10° WSW 19:11:00 13° W 19:13:40 10° WNW visible
30 Mar ? 18:54:25 10° SW 18:58:06 18° W 19:01:48 10° NW visible
31 Mar ? 18:40:52 10° SW 18:45:14 23° W 18:49:36 10° NW visible
01 Apr ? 18:27:32 10° SSW 18:32:23 30° W 18:37:14 10° NW visible
